Flag for Venezuela Weather past 2 weeks in Valencia, Venezuela

Now
77 °F

Sprinkles. Passing clouds.


Feels Like: 78 °F
Forecast: 69 / 84 °F
Wind: No wind

Location: Valencia Airport

Current Time: Aug 27, 2014 at 1:39:06 PM

Latest Report: Aug 27, 2014 at 12:30 PM


Visibility: 1 mi

Pressure: 30.01 "Hg

Humidity: 83%

Dew point: 72 °F

Location of ValenciaLocation

Historic Weather in Valencia — Graph

°F

Valencia temperature yesterday

Maximum temperature yesterday: 86 °F (at 12:30 PM)
Minimum temperature yesterday: 73 °F (at 8:30 PM)
Average temperature yesterday: 79 °F

Past Weeks' High & Low Weather Summary

 TemperatureHumidityPressure
High90 °F (Aug 12, 1:30 PM)94% (Aug 13, 5:30 PM)30.09 "Hg (Aug 13, 5:30 PM)
Low70 °F (Aug 18, 9:30 PM)49% (Aug 12, 2:30 PM)29.80 "Hg (Aug 25, 5:30 PM)
Average79 °F77%29.98 "Hg
* Reported Aug 12 12:30 PM — Aug 27 12:30 PM, Valencia, Weather by CustomWeather, © 2014

Note: Actual official high and low records may vary slightly from our data, if they occured in-between our weather recording intervals... More about our weather records

Advertising

Valencia weather history for previous 24 hours

 ConditionsComfort  
Time TempWeatherWind HumidityBarometerVisibility
12:30 PM
Aug 27
77 °FSprinkles. Passing clouds.No wind83%30.01 "Hg1 mi
11:30 AM82 °FDrizzle. Partly sunny.5 mph62%29.98 "Hg5 mi
9:30 AM81 °FBroken clouds.2 mph74%30.01 "HgN/A
8:30 AM77 °FBroken clouds.1 mph83%30.01 "HgN/A
7:30 AM75 °FBroken clouds.6 mph89%29.98 "HgN/A
6:30 AM73 °FBroken clouds.3 mph89%29.98 "HgN/A
5:30 AM73 °FBroken clouds.2 mph78%29.98 "HgN/A
4:30 AM73 °FPartly cloudy.2 mph89%29.98 "HgN/A
1:30 AM73 °FPassing clouds.5 mph89%29.98 "HgN/A
10:30 PM
Aug 26
73 °FPassing clouds.3 mph94%30.01 "HgN/A
9:30 PM73 °FPassing clouds.6 mph94%29.98 "HgN/A
8:30 PM73 °FPartly cloudy.6 mph89%29.98 "HgN/A
7:30 PM75 °FPartly cloudy.7 mph89%29.95 "HgN/A
6:30 PM75 °FMostly cloudy.9 mph89%29.95 "HgN/A
5:30 PM81 °FPartly sunny.6 mph70%29.92 "HgN/A
4:30 PM82 °FBroken clouds.7 mph66%29.92 "HgN/A
3:30 PM82 °FBroken clouds.8 mph66%29.95 "HgN/A
2:30 PM82 °FPartly sunny.10 mph62%29.95 "HgN/A
1:30 PM86 °FPartly sunny.14 mph59%29.98 "HgN/A
Weather by CustomWeather, © 2014

See weather overviewHow to use our weather pages